Starlink 30295

operational
NORAD ID: 57683 Int'l Des: 2023-124 Owner: SPXS Country: US Constellation: starlink
LEOCIRCULAR

关于 Starlink 30295

正在加载描述...

实时位置

正在加载3D地球...

即将过境

高度历史

Altitude vs Time

uPlot chart will show altitude changes over time

两行轨道根数

1 57683U 23124W 25305.73798355 .00004715 00000-0 17133-3 0 9998
2 57683 53.1607 81.3929 0001209 66.5220 293.5908 15.30175838123977
Epoch: Nov 1, 2025 • Age: 38 hours

当前状态

高度 477.5 km
速度 7.63 km/s
星下点 37.07°N, 47.67°W
发射日期 Aug 22, 2023
运行时间 2.1 years
类型 internet

技术详情

分类 Payload
质量 730.00 kg
干质量 700.00 kg
总质量 730.00 kg
长度 0.30 m
直径 4.10 m
跨度 29.00 m
形状 Box + pan
制造商 SPXS
平台类型 Starlink V2M
阶段状态 In Orbit
所有者/国家 SPXS/US

大型星座

Loading constellations...